Terug naar catalogus

STARLINK-36380

ActiefCommunicatieVLEO
NORAD 68344·PAYLOAD·🇺🇸 United States

Gelanceerd Mar 22, 2026 vanaf Cape Canaveral Space Force Station

Loading…

Volgende Passages (komende 24 uur)

TLE

VersSource: CelesTrak SupGP

Epoch: Sep 15, 2026, 04:14 UTC

1 68344C 26059Z   26258.17687500 -.00019032  00000+0 -56182-3 0  2583
2 68344  53.1578 188.2459 0001409  87.1589 329.3099 15.34427557    14

Volg STARLINK-36380 in realtime met AllMySat

Download on the App Store